Regional Weather Roundup
Issued by NWS

Home | Current Version | Previous Version | Graphics & Text | Print | Product List | Glossary On
Versions: 1 2 3 4 5 6 7 8 9 10 11 12 13 14 15 16 17 18 19 20 21 22 23 24 25 26 27 28 29 30 31 32 33 34 35 36 37 38 39 40 41 42 43 44 45 46 47 48 49 50
000
ASUS43 KDTX 102001
RWRMI
MICHIGAN HOURLY REGIONAL WEATHER ROUNDUP
NATIONAL WEATHER SERVICE DETROIT/PONTIAC MI
300 PM EST SAT DEC 10 2016

NOTE: "FAIR" INDICATES FEW OR NO CLOUDS BELOW 12,000 FEET WITH NO
SIGNIFICANT WEATHER AND/OR OBSTRUCTION TO VISIBILITY.

MIZ047>049-052>055-059>063-066>070-074>076-081>083-102100-
SOUTHEAST LOWER MICHIGAN

CITY           SKY/WX    TMP DP  RH WIND       PRES   REMARKS
ADRIAN         MOSUNNY   26  16  65 W16       30.42S WCI  14
ALMA           PTSUNNY   26  11  54 W9G18     30.38R WCI  16
ANN ARBOR      PTSUNNY   26  17  68 SW17      30.39S WCI  13
BAD AXE        CLOUDY    24  15  67 W10G16    30.35S WCI  14
CARO           PTSUNNY   27  17  66 SW10      30.35S WCI  17
DETROIT CITY   CLOUDY    28  15  58 W10       30.39F WCI  19
DETROIT        PTSUNNY   29  16  58 W15       30.41S WCI  18
FLINT          CLOUDY    25  16  68 W14       30.38R WCI  13
GROSSE ILE     CLOUDY    29  14  52 W13       30.40S WCI  19
HILLSDALE      CLOUDY    25  16  68 W13G18    30.38S WCI  13
HOWELL         CLOUDY    26  18  72 SW10      30.37R WCI  16

CITY           SKY/WX    TMP DP  RH WIND       PRES   REMARKS
JACKSON        CLOUDY    24  17  74 W15       30.38F WCI  11
LAMBERTVILLE   PTSUNNY   30  17  57 W10       30.43R WCI  21
LANSING        LGT SNOW  24  18  77 W10       30.39S VSB 1   WCI  14
LAPEER         NOT AVBL
MASON          LGT SNOW  24  21  87 SW6       30.38S VSB 3/4 WCI  17
MONROE         CLOUDY    29  17  59 SW13      30.41R WCI  19
MT. CLEMENS    FLURRIES  28  18  64 SW14      30.36F WCI  17
PONTIAC        LGT SNOW  25  16  68 W12G18    30.35S WCI  14
PORT HOPE        N/A     25  11  55 W10G24    30.32S WCI  15
PORT HURON     FLURRIES  27  19  74 SW8       30.37F WCI  18
TRI CITIES     CLOUDY    28  12  51 W10       30.37S WCI  19
MIDLAND        PTSUNNY   26  11  53 W12       30.36S WCI  15
TROY           FLURRIES  28  16  60 W10G16    30.40S WCI  19
SAGINAW HB     PTSUNNY   30  12  47 SW15      30.36S WCI  19
$$
MIZ043>046-050>051-056>058-064>065-071>073-077>080-102100-
SOUTHWEST LOWER MICHIGAN

CITY           SKY/WX    TMP DP  RH WIND       PRES   REMARKS
BATTLE CREEK   LGT SNOW  23  20  88 SW12      30.39F FOG     WCI  12
BENTON HARBOR  CLOUDY    26  15  63 W12       30.43F WCI  16
BIG RAPIDS     FLURRIES  22  12  66 W12       30.35R WCI  10
COLDWATER      CLOUDY    25  18  74 W10       30.41S WCI  15
FREMONT        CLOUDY    22  11  62 NW10      30.39R WCI  11
HOLLAND        CLOUDY    26  15  63 W9        30.41F WCI  17
GRAND RAPIDS   LGT SNOW  24  19  81 W5        30.40S WCI  18
IONIA          CLOUDY    23  17  77 W8        30.37F WCI  14
KALAMAZOO      LGT SNOW  24  18  77 SW8       30.41S WCI  15
LUDINGTON      CLOUDY    22  12  66 W8        30.38S WCI  12
MARSHALL       LGT SNOW  24  19  82 SW8       30.39S WCI  15
MOUNT PLEASANT CLOUDY    25  12  57 W9        30.35S WCI  15
MUSKEGON       FLURRIES  25  15  66 W8        30.41S WCI  16
SOUTH HAVEN    CLOUDY    26  17  68 W7        30.42S WCI  18
$$
MIZ016>042-102100-
NORTHERN LOWER MICHIGAN

CITY           SKY/WX    TMP DP  RH WIND       PRES   REMARKS
ALPENA         PTSUNNY   23  13  65 W8        30.32R WCI  14
BELLAIRE       FLURRIES  20  14  76 SW6       30.35S WCI  13
CADILLAC       LGT SNOW  20  15  82 W8        30.30R WCI  10
CHARLEVOIX     FLURRIES  22  13  68 SW10      30.34S WCI  11
FRANKFORT      FLURRIES  21  13  73 W8        30.37R WCI  11
GAYLORD        CLOUDY    18   9  68 W17G23    30.28R WCI   3
GRAYLING       PTSUNNY   19  11  69 W8        30.31S WCI   9
HARBOR SPRINGS LGT SNOW  23  15  73 W9G22     30.30R WCI  13
HOUGHTON LAKE  LGT SNOW  19  16  88 W8        30.31S VSB 3/4 WCI   9
MANISTEE       FLURRIES  22  12  65 W12       30.37R WCI  10
OSCODA         CLOUDY    26  10  51 W8        30.32S WCI  18
PELLSTON       CLOUDY    21  14  74 SW5       30.30S WCI  15
ROGERS CITY    CLOUDY    24  11  59 SW10G18   30.31S WCI  13
TRAVERSE CITY  CLOUDY    20  12  71 W12       30.36R WCI   8
$$
MIZ007>008-015-102100-
EASTERN UPPER MICHIGAN

CITY           SKY/WX    TMP DP  RH WIND       PRES   REMARKS
KINROSS        CLOUDY    22  13  68 W5        30.26S WCI  16
MACKINAC ISLAN FLURRIES  22  14  70 SW14G22   30.27S WCI   9
NEWBERRY       MOSUNNY   18  12  79 W5        30.25R WCI  11
S. S. MARIE    CLOUDY    22  12  65 S8        30.26S WCI  12
MUNISING         N/A     24  12  60 NW15G21   30.30S WCI  11
$$
MIZ004>006-011>014-085-102100-
CENTRAL UPPER MICHIGAN

CITY           SKY/WX    TMP DP  RH WIND       PRES   REMARKS
MANISTIQUE     MOSUNNY   20  11  68 W10       30.30S WCI   8
ESCANABA       SUNNY     21   4  47 NW12      30.34R WCI   9
MENOMINEE      SUNNY     19   1  45 W7        30.36F WCI  10
SAWYER-GWINN   SUNNY     16   5  62 NW13      30.28S WCI   2
$$
MIZ001>003-009>011-084-102100-
WESTERN UPPER MICHIGAN

CITY           SKY/WX    TMP DP  RH WIND       PRES   REMARKS
IRON MOUNTAIN  MOSUNNY   17  -1  45 NW8       30.29F WCI   7
HOUGHTON       LGT SNOW  14   7  73 NW5       30.28F WCI   6
COPPER HARBOR    N/A     19  10  68 N9        30.32S WCI   8
IRONWOOD       MOSUNNY    9  -2  61 SW5       30.33F WCI   1
$$

ABBREVIATIONS USED IN REMARKS
   TC - TEMPERATURE IN CELSIUS
  WCI - WIND CHILL INDEX
   HX - HEAT INDEX
  VSB - VISIBILITY





USA.gov is the U.S. government's official web portal to all federal, state and local government web resources and services.